Perry, IA

10:13 PM CDT on April 27, 2017 (GMT -0500)
Perry Municipal

Weather History for KPRO - July, 2012

Change the Weather History Date:

Thursday, July 19, 2012

  Actual Average Record
Temperature  
Mean Temperature 80 °F -  
Max Temperature 91 °F 86 °F 98 °F (1974)
Min Temperature 68 °F 66 °F 52 °F (1979)
Cooling Degree Days 14    
Growing Degree Days 30 (Base 50)    
Moisture  
Dew Point 68 °F    
Average Humidity 67    
Maximum Humidity 90    
Minimum Humidity 42    
Precipitation  
Precipitation 0.00 in - - ()
Sea Level Pressure  
Sea Level Pressure 29.99 in    
Wind  
Wind Speed 5 mph (North)    
Max Wind Speed 12 mph    
Max Gust Speed 10 mph    
Visibility 10 miles    
Events      
Averages and records for this station are not official NWS values.
T = Trace of Precipitation, MM = Missing Value Source: NWS Daily Summary

Daily Weather History Graph

Daily Weather History Graph

Search for Another Location

Airport or City:

Trip Planner

Search our weather history database for the weather conditions in past years. The results will help you decide how hot, cold, wet, or windy it might be!

Date:

Astronomy

Jul. 19, 2012 Rise Set
Actual Time 5:58 AM CDT 8:46 PM CDT
Civil Twilight 5:25 AM CDT 9:19 PM CDT
Nautical Twilight 4:44 AM CDT 10:00 PM CDT
Astronomical Twilight 3:57 AM CDT 10:47 PM CDT
Moon 6:35 AM CDT (7/19) 8:51 PM CDT (7/19)
Length of Visible Light 15h 53m
Length of Day
14h 48m
New Moon, 0% of the Moon is Illuminated
Jul 19
New Moon
Jul 26
First Quarter
Aug 1
Full
Aug 9
Last Quarter
Aug 17
New

Hourly Weather History & Observations

Time (CDT) Temp. Heat Index Dew Point Humidity Pressure Visibility Wind Dir Wind Speed Gust Speed Precip Events Conditions
12:15 AM 76.3 °F - 68.9 °F 78% 29.90 in 10.0 mi NNE 4.6 mph - N/A   Unknown
12:35 AM 75.9 °F - 67.8 °F 76% 29.90 in 10.0 mi NNE 4.6 mph - N/A   Unknown
12:55 AM 75.2 °F - 67.1 °F 76% 29.91 in 10.0 mi NNE 4.6 mph - N/A   Unknown
1:15 AM 74.3 °F - 67.1 °F 78% 29.91 in 10.0 mi North 3.5 mph - N/A   Unknown
1:35 AM 72.5 °F - 67.1 °F 83% 29.91 in 10.0 mi Calm Calm - N/A   Unknown
1:55 AM 70.9 °F - 66.4 °F 86% 29.91 in 10.0 mi Calm Calm - N/A   Unknown
2:15 AM 70.9 °F - 66.6 °F 86% 29.91 in 10.0 mi NW 4.6 mph - N/A   Unknown
2:35 AM 70.7 °F - 66.4 °F 86% 29.91 in 10.0 mi NNW 3.5 mph - N/A   Unknown
2:55 AM 70.0 °F - 66.0 °F 87% 29.91 in 10.0 mi NW 3.5 mph - N/A   Unknown
3:15 AM 69.8 °F - 65.7 °F 87% 29.91 in 10.0 mi NNW 3.5 mph - N/A   Unknown
3:35 AM 69.4 °F - 65.5 °F 87% 29.92 in 10.0 mi NW 4.6 mph - N/A   Unknown
3:55 AM 69.4 °F - 65.3 °F 87% 29.92 in 10.0 mi NNW 4.6 mph - N/A   Unknown
4:15 AM 70.3 °F - 65.7 °F 85% 29.93 in 10.0 mi North 5.8 mph - N/A   Unknown
4:35 AM 70.0 °F - 65.5 °F 86% 29.94 in 10.0 mi North 5.8 mph - N/A   Unknown
4:55 AM 70.0 °F - 66.0 °F 87% 29.94 in 10.0 mi North 3.5 mph - N/A   Unknown
5:15 AM 69.3 °F - 65.3 °F 87% 29.94 in 10.0 mi NNW 4.6 mph - N/A   Unknown
5:35 AM 68.9 °F - 64.9 °F 87% 29.96 in 10.0 mi NNW 4.6 mph - N/A   Unknown
5:55 AM 68.2 °F - 64.8 °F 89% 29.96 in 7.0 mi Calm Calm - N/A   Unknown
6:15 AM 68.0 °F - 64.6 °F 89% 29.97 in 7.0 mi NW 4.6 mph - N/A   Unknown
6:35 AM 68.4 °F - 65.3 °F 90% 29.98 in 7.0 mi Calm Calm - N/A   Unknown
7:15 AM 70.9 °F - 67.1 °F 88% 29.98 in 5.0 mi North 3.5 mph - N/A   Mist
7:35 AM 72.5 °F - 67.1 °F 83% 29.98 in 7.0 mi North 4.6 mph - N/A   Unknown
7:55 AM 74.5 °F - 68.2 °F 81% 29.98 in 10.0 mi North 3.5 mph - N/A   Unknown
8:35 AM 77.9 °F - 68.7 °F 73% 30.00 in 10.0 mi Calm Calm - N/A   Unknown
8:55 AM 79.3 °F - 68.2 °F 69% 30.01 in 10.0 mi Calm Calm - N/A   Unknown
9:15 AM 80.2 °F 83.1 °F 68.7 °F 68% 30.01 in 10.0 mi Calm Calm - N/A   Unknown
9:35 AM 81.9 °F 84.8 °F 68.4 °F 63% 30.02 in 10.0 mi Calm Calm - N/A   Unknown
9:55 AM 82.8 °F 86.0 °F 68.5 °F 62% 30.02 in 10.0 mi NNW 3.5 mph - N/A   Unknown
10:15 AM 83.7 °F 87.7 °F 69.8 °F 63% 30.02 in 10.0 mi West 3.5 mph - N/A   Unknown
10:35 AM 84.7 °F 89.7 °F 70.9 °F 63% 30.02 in 10.0 mi NNW 6.9 mph - N/A   Unknown
10:55 AM 85.8 °F 90.8 °F 70.7 °F 60% 30.02 in 10.0 mi North 4.6 mph - N/A   Unknown
11:15 AM 86.5 °F 91.8 °F 70.9 °F 59% 30.02 in 10.0 mi North 5.8 mph - N/A   Unknown
11:35 AM 87.4 °F 93.1 °F 71.2 °F 58% 30.02 in 10.0 mi North 8.1 mph - N/A   Unknown
11:55 AM 87.8 °F 92.6 °F 69.6 °F 55% 30.03 in 10.0 mi North 6.9 mph 10.4 mph N/A   Unknown
12:15 PM 88.3 °F 93.6 °F 70.2 °F 55% 30.03 in 10.0 mi North 8.1 mph - N/A   Unknown
12:35 PM 89.1 °F 93.7 °F 69.1 °F 52% 30.03 in 10.0 mi North 10.4 mph - N/A   Unknown
1:15 PM 89.4 °F 93.5 °F 68.7 °F 50% 30.02 in 10.0 mi North 8.1 mph - N/A   Unknown
1:35 PM 89.8 °F 94.2 °F 68.9 °F 50% 30.02 in 10.0 mi North 9.2 mph - N/A   Unknown
1:55 PM 90.3 °F 94.7 °F 68.9 °F 49% 30.02 in 10.0 mi NNW 9.2 mph - N/A   Unknown
2:15 PM 90.5 °F 94.2 °F 67.8 °F 47% 30.02 in 10.0 mi North 9.2 mph - N/A   Unknown
2:35 PM 90.7 °F 95.4 °F 69.1 °F 49% 30.02 in 10.0 mi North 11.5 mph - N/A   Unknown
2:55 PM 91.2 °F 95.0 °F 67.8 °F 46% 30.01 in 10.0 mi North 10.4 mph - N/A   Unknown
3:15 PM 91.6 °F 95.7 °F 68.0 °F 46% 30.01 in 10.0 mi North 9.2 mph - N/A   Unknown
3:35 PM 91.6 °F 95.2 °F 67.6 °F 45% 30.01 in 10.0 mi North 9.2 mph - N/A   Unknown
3:55 PM 91.8 °F 95.1 °F 66.9 °F 44% 30.01 in 10.0 mi North 9.2 mph - N/A   Unknown
4:15 PM 91.9 °F 94.5 °F 66.0 °F 42% 30.01 in 10.0 mi North 9.2 mph - N/A   Unknown
4:35 PM 91.9 °F 96.4 °F 68.2 °F 46% 30.00 in 10.0 mi NNW 9.2 mph - N/A   Unknown
4:55 PM 91.8 °F 96.0 °F 68.5 °F 46% 30.00 in 10.0 mi North 6.9 mph - N/A   Unknown
5:15 PM 91.6 °F 95.7 °F 68.4 °F 46% 29.99 in 10.0 mi North 8.1 mph - N/A   Unknown
5:35 PM 91.9 °F 97.4 °F 69.6 °F 48% 29.99 in 10.0 mi North 6.9 mph - N/A   Unknown
6:15 PM 90.9 °F 94.8 °F 67.8 °F 47% 29.99 in 10.0 mi NNE 5.8 mph - N/A   Unknown
7:35 PM 87.6 °F 90.4 °F 67.1 °F 50% 29.98 in 10.0 mi NNE 4.6 mph - N/A   Unknown
7:55 PM 86.5 °F 89.3 °F 67.3 °F 52% 29.98 in 10.0 mi NNE 4.6 mph - N/A   Unknown
8:15 PM 85.1 °F 88.2 °F 68.0 °F 56% 29.98 in 10.0 mi NE 4.6 mph - N/A   Unknown
8:35 PM 83.5 °F 86.4 °F 68.0 °F 59% 29.99 in 10.0 mi NE 4.6 mph - N/A   Unknown
8:55 PM 81.5 °F 84.4 °F 68.2 °F 64% 29.99 in 10.0 mi NE 4.6 mph - N/A   Unknown
9:15 PM 80.6 °F 83.2 °F 68.0 °F 65% 30.00 in 10.0 mi NE 4.6 mph - N/A   Unknown
9:35 PM 79.9 °F - 68.2 °F 67% 30.02 in 10.0 mi NE 4.6 mph - N/A   Unknown
9:55 PM 79.9 °F - 68.2 °F 67% 30.03 in 10.0 mi NE 4.6 mph - N/A   Unknown
10:15 PM 79.7 °F - 68.2 °F 68% 30.05 in 10.0 mi ENE 3.5 mph - N/A   Unknown
10:35 PM 77.9 °F - 68.4 °F 72% 30.05 in 10.0 mi ENE 5.8 mph - N/A   Unknown
10:55 PM 77.9 °F - 68.0 °F 71% 30.06 in 10.0 mi ENE 4.6 mph - N/A   Unknown
11:15 PM 77.4 °F - 67.6 °F 72% 30.06 in 10.0 mi ENE 4.6 mph - N/A   Unknown
11:35 PM 76.1 °F - 67.6 °F 75% 30.07 in 10.0 mi ENE 4.6 mph - N/A   Unknown
11:55 PM 74.5 °F - 67.5 °F 79% 30.08 in 10.0 mi Calm Calm - N/A   Unknown